AD5L Weather Reports


Display with metric or nautical units.
time (UTC)temp
F
wind
direction
speed
MPH
gust
MPH
rain 1hr
in
rain 24hr
in
rain mn
in
humidity
%
barometer
mb
20260904175346 91 166 5.0 13.0 0.00 0.07 0.07 67 1015.3
20260904174336 91 150 5.0 13.0 0.00 0.07 0.07 66 1015.3
20260904173347 91 195 5.0 12.0 0.00 0.07 0.07 66 1015.5
20260904172325 92 130 5.0 11.0 0.00 0.07 0.07 65 1015.5
20260904171345 93 134 3.0 8.0 0.00 0.07 0.07 64 1015.6
20260904170327 93 122 3.0 8.0 0.00 0.07 0.07 64 1015.6
20260904165338 92 229 3.0 7.0 0.00 0.07 0.07 67 1015.8
20260904164328 91 164 3.0 6.0 0.00 0.07 0.07 70 1015.6
20260904163340 90 241 4.0 8.0 0.00 0.07 0.07 68 1015.6
20260904162331 90 229 3.0 10.0 0.00 0.07 0.07 70 1015.6
20260904161321 89 201 4.0 10.0 0.00 0.07 0.07 72 1015.7
20260904160332 88 201 3.0 8.0 0.00 0.07 0.07 73 1015.7
20260904155341 87 243 3.0 8.0 0.00 0.07 0.07 77 1015.5
20260904154332 86 261 2.0 7.0 0.00 0.07 0.07 80 1015.7
20260904153341 86 158 3.0 8.0 0.00 0.07 0.07 80 1015.7
20260904152332 85 208 1.0 4.0 0.00 0.07 0.07 84 1015.7
20260904151322 83 199 3.0 5.0 0.00 0.07 0.07 86 1015.6
20260904150327 82 246 1.0 10.0 0.00 0.07 0.07 89 1015.5
20260904145337 82 252 1.0 6.0 0.00 0.07 0.07 92 1015.4
20260904144348 81 134 2.0 5.0 0.00 0.07 0.07 94 1015.3
20260904143335 80 213 1.0 6.0 0.00 0.07 0.07 97 1015.3
20260904142345 79 154 3.0 6.0 0.00 0.07 0.07 99 1015.2
20260904141353 79 168 0.0 4.0 0.01 0.07 0.07 100 1015.2
20260904140326 78 188 0.0 6.0 0.02 0.07 0.07 100 1015.1
20260904135327 78 186 1.0 6.0 0.03 0.07 0.07 100 1015.0
20260904134336 78 238 3.0 7.0 0.04 0.07 0.07 99 1014.9
20260904133322 78 211 1.0 5.0 0.07 0.07 0.07 99 1014.9
20260904132327 78 258 4.0 8.0 0.07 0.07 0.07 99 1014.9
20260904131337 78 235 2.0 6.0 0.06 0.06 0.06 99 1014.8
20260904130325 77 233 2.0 5.0 0.05 0.05 0.05 99 1015.0
20260904125332 77 196 0.0 5.0 0.04 0.04 0.04 99 1015.0
20260904124340 78 209 1.0 4.0 0.03 0.03 0.03 97 1015.1
20260904123340 79 194 1.0 4.0 0.00 0.00 0.00 94 1015.1
20260904122329 79 132 0.0 3.0 0.00 0.00 0.00 93 1015.0
20260904121336 79 109 1.0 4.0 0.00 0.00 0.00 93 1014.9
20260904120325 79 76 1.0 4.0 0.00 0.00 0.00 93 1014.7
20260904115329 79 93 2.0 5.0 0.00 0.00 0.00 92 1014.5
20260904114337 79 100 3.0 6.0 0.00 0.00 0.00 92 1014.4
20260904113328 80 106 2.0 5.0 0.00 0.00 0.00 91 1014.2
20260904112339 80 126 1.0 5.0 0.00 0.00 0.00 90 1013.8
20260904111330 80 144 1.0 5.0 0.00 0.00 0.00 90 1013.7
20260904110341 80 148 2.0 7.0 0.00 0.00 0.00 90 1013.7
20260904105323 80 151 1.0 10.0 0.00 0.00 0.00 89 1013.7
20260904104340 80 146 4.0 11.0 0.00 0.00 0.00 89 1013.5
20260904103322 80 155 3.0 8.0 0.00 0.00 0.00 89 1013.4
20260904102332 80 167 4.0 6.0 0.00 0.00 0.00 89 1013.5
20260904101322 80 148 3.0 8.0 0.00 0.00 0.00 89 1013.5
20260904100332 80 200 1.0 6.0 0.00 0.00 0.00 89 1013.4
20260904095322 80 179 3.0 9.0 0.00 0.00 0.00 89 1013.2
20260904094333 80 162 2.0 7.0 0.00 0.00 0.00 89 1013.2
20260904093324 80 146 3.0 7.0 0.00 0.00 0.00 88 1013.2
20260904092335 80 154 3.0 7.0 0.00 0.00 0.00 88 1013.2
20260904091326 80 182 2.0 7.0 0.00 0.00 0.00 88 1013.1
20260904090337 80 190 2.0 8.0 0.00 0.00 0.00 88 1013.2
20260904085328 80 174 2.0 9.0 0.00 0.00 0.00 88 1013.3
20260904084338 80 118 3.0 10.0 0.00 0.00 0.00 88 1013.3
20260904083329 81 161 5.0 11.0 0.00 0.00 0.00 88 1013.3
20260904082340 81 148 2.0 9.0 0.00 0.00 0.00 88 1013.4
20260904081332 81 162 3.0 10.0 0.00 0.00 0.00 87 1013.4
20260904080344 81 144 4.0 10.0 0.00 0.00 0.00 87 1013.4
20260904075334 81 120 4.0 12.0 0.00 0.00 0.00 87 1013.3
20260904074340 81 125 4.0 9.0 0.00 0.00 0.00 87 1013.3
20260904073349 81 175 3.0 9.0 0.00 0.00 0.00 87 1013.4
20260904072330 81 159 3.0 8.0 0.00 0.00 0.00 87 1013.4
20260904071322 81 162 4.0 8.0 0.00 0.00 0.00 87 1013.5
20260904070332 81 144 2.0 9.0 0.00 0.00 0.00 86 1013.7
20260904065339 81 207 1.0 8.0 0.00 0.00 0.00 86 1013.7
20260904064330 81 157 3.0 9.0 0.00 0.00 0.00 86 1013.9
20260904063340 81 212 3.0 9.0 0.00 0.00 0.00 86 1013.8
20260904062330 81 171 4.0 9.0 0.00 0.00 0.00 86 1013.5
20260904061341 81 188 4.0 12.0 0.00 0.00 0.00 86 1013.7
20260904060331 81 140 3.0 10.0 0.00 0.00 0.00 86 1013.7
20260904055321 81 150 4.0 8.0 0.00 0.00 0.00 86 1013.7
20260904054333 81 132 4.0 7.0 0.00 0.00 0.00 86 1013.6
20260904053324 81 137 1.0 11.0 0.00 0.00 0.00 86 1013.7
20260904052334 81 154 5.0 10.0 0.00 0.00 0.00 85 1013.5
20260904051326 81 139 4.0 8.0 0.00 0.00 0.00 85 1013.6
20260904050336 81 133 4.0 13.0 0.00 0.00 0.00 85 1013.4
20260904045347 81 207 4.0 10.0 0.00 0.00 0.00 85 1013.3
20260904044338 81 129 5.0 12.0 0.00 0.00 0.00 85 1013.4
20260904043349 81 146 4.0 8.0 0.00 0.00 0.00 84 1013.4
20260904042340 81 125 4.0 10.0 0.00 0.00 0.00 84 1013.4
20260904041349 81 152 4.0 9.0 0.00 0.00 0.00 83 1013.4
20260904040332 81 128 4.0 10.0 0.00 0.00 0.00 82 1013.4
20260904035322 81 133 4.0 10.0 0.00 0.00 0.00 82 1013.3
20260904034334 81 118 3.0 9.0 0.00 0.00 0.00 81 1013.3
20260904033325 81 137 4.0 8.0 0.00 0.00 0.00 80 1013.3
20260904032332 82 135 2.0 16.0 0.00 0.00 0.00 80 1013.2
20260904031323 82 105 3.0 9.0 0.00 0.00 0.00 79 1013.1
20260904030335 82 105 5.0 13.0 0.00 0.00 0.00 79 1013.1
20260904025325 82 145 4.0 11.0 0.00 0.00 0.00 78 1012.9
20260904024332 82 127 5.0 12.0 0.00 0.00 0.00 77 1013.0
20260904023322 83 158 3.0 9.0 0.00 0.00 0.00 76 1012.8
20260904022333 83 118 4.0 9.0 0.00 0.00 0.00 76 1012.7
20260904021342 83 113 1.0 7.0 0.00 0.00 0.00 75 1012.7
20260904020330 83 96 1.0 8.0 0.00 0.00 0.00 74 1012.6
20260904015336 83 125 0.0 6.0 0.00 0.00 0.00 74 1012.4
20260904014326 84 94 2.0 10.0 0.00 0.00 0.00 74 1012.3
20260904013337 84 117 4.0 10.0 0.00 0.00 0.00 74 1012.4
20260904012326 84 115 2.0 9.0 0.00 0.00 0.00 74 1012.5
20260904011333 84 123 4.0 12.0 0.00 0.00 0.00 73 1012.2
20260904010342 85 133 5.0 14.0 0.00 0.00 0.00 73 1012.1
20260904005332 85 82 6.0 15.0 0.00 0.00 0.00 73 1012.0
20260904004341 85 115 4.0 12.0 0.00 0.00 0.00 72 1012.0
20260904003323 86 122 4.0 13.0 0.00 0.00 0.00 71 1012.0
20260904002342 87 139 6.0 14.0 0.00 0.00 0.00 71 1012.0
20260904001322 88 122 6.0 13.0 0.00 0.00 0.00 70 1011.9
20260904000334 88 141 5.0 18.0 0.00 0.00 0.00 70 1011.9
20260903235325 89 79 7.0 16.0 0.00 0.00 0.00 70 1011.8
20260903234336 89 77 4.0 17.0 0.00 0.00 0.00 70 1011.7
20260903233327 90 106 8.0 20.0 0.00 0.00 0.00 69 1011.6
20260903232332 91 122 7.0 17.0 0.00 0.00 0.00 68 1011.4
20260903231322 90 81 9.0 21.0 0.00 0.00 0.00 70 1011.4
20260903230333 91 99 6.0 18.0 0.00 0.00 0.00 71 1011.3
20260903225324 93 143 7.0 17.0 0.00 0.00 0.00 67 1011.1
20260903224334 93 148 6.0 17.0 0.00 0.00 0.00 67 1011.1
20260903223322 93 293 6.0 16.0 0.00 0.00 0.00 65 1011.0
20260903222333 93 96 7.0 16.0 0.00 0.00 0.00 64 1011.1
20260903221324 94 84 9.0 17.0 0.00 0.00 0.00 64 1011.1
20260903220334 94 98 6.0 15.0 0.00 0.00 0.00 63 1011.1
20260903215323 94 113 6.0 14.0 0.00 0.00 0.00 63 1011.1
20260903214334 94 70 6.0 15.0 0.00 0.00 0.00 62 1010.9
20260903213345 94 89 5.0 12.0 0.00 0.00 0.00 62 1011.1
20260903212335 94 80 7.0 12.0 0.00 0.00 0.00 62 1011.2
20260903211345 94 51 5.0 11.0 0.00 0.00 0.00 62 1011.3
20260903210326 95 70 4.0 15.0 0.00 0.00 0.00 62 1011.4
20260903205346 95 131 5.0 13.0 0.00 0.00 0.00 61 1011.4
20260903204328 96 108 5.0 11.0 0.00 0.00 0.00 60 1011.5
20260903203339 95 122 6.0 12.0 0.00 0.00 0.00 60 1011.6
20260903202330 95 139 6.0 15.0 0.00 0.00 0.00 62 1012.1
20260903201322 95 88 6.0 8.0 0.00 0.00 0.00 59 1012.1
20260903200333 95 78 5.0 12.0 0.00 0.00 0.00 59 1012.3
20260903195325 94 77 2.0 7.0 0.00 0.00 0.00 62 1012.3
20260903194335 93 91 4.0 8.0 0.00 0.00 0.00 64 1012.5
20260903193327 94 96 2.0 8.0 0.00 0.00 0.00 61 1012.6
20260903192337 94 131 1.0 7.0 0.00 0.00 0.00 63 1012.8
20260903191326 93 125 2.0 9.0 0.00 0.00 0.00 63 1012.9
20260903190332 92 79 3.0 9.0 0.00 0.00 0.00 63 1013.1
20260903185340 93 124 2.0 7.0 0.00 0.00 0.00 64 1013.2
20260903184328 92 122 3.0 9.0 0.00 0.00 0.00 65 1013.3
20260903183339 92 127 2.0 7.0 0.00 0.00 0.00 65 1013.5
20260903182329 92 105 2.0 7.0 0.00 0.00 0.00 65 1013.7
20260903181339 92 108 2.0 8.0 0.00 0.00 0.00 66 1013.8
20260903180322 91 84 4.0 9.0 0.00 0.00 0.00 66 1013.9